GENESIS 1

Last updated on July 7, 2021, 12:02 a.m. UTC

1 29252U 06029A   21187.25672321  .00000720  00000-0  43782-4 0  9991
2 29252  64.5211 125.7478 0046426 314.8352  44.9002 15.18723069826459
UTC
Height (km)
Latitude
Longitude
Inclination
Orbital Period
UTC large
Height (km)
Speed (km/s)
/
Latitude / Longitude
Inclination (degrees)
Orbital Period (minutes)
Azimuth
Elevation
Range (km)
Doppler Factor
iOS Compass Heading
iOS Angle